Content
SEND FEEDBACK

Daily
Averages
Monthly
Summary
United States of America

ASHEVILLE, NORTH CAROLINA


Home > North America > United States > North Carolina
Elevation: 2240 feet     Latitude: 35 36N     Longitude: 082 32W

WEATHER
 
SELECT A DAY
Number of Records: 225,823;   Date Range: 1/1/95 - 7/29/14
 
SHARE

PRINT THIS DATA

[ ← Previous Day ]
WEATHER ALMANAC - FEBRUARY 28, 2013
[ Next Day → ]
[ °C ]   °F
Weather ElementAverageHighLow
Temperature36 °F43 °F (2:54 pm)33.1 °F (9:54 pm)
Dewpoint23.9 °F32 °F (1:54 am)21 °F (4:54 pm)
Humidity62.3 %86 % (1:54 am)43 % (2:54 pm)
Barometer29.81 in29.91 in (6:54 pm)29.70 in (3:54 am)
Wind Speed10.9 mph16.1 mph (5:54 am)
Wind Gust24.2 mph (4:54 pm)
Weather ElementAverage
Visibility10 mi
Wind DirectionNW (315.8 °)

Weather ElementTotal
Precipitation---
Heating Degree Days27 (Base 65)
Averaged from 26 records on February 28, 2013
WEATHER CONDITIONS BREAKOUT
WIND DIRECTION BREAKOUT
WEATHER BY HOUR - FEBRUARY 28, 2013
[ °C ]   °F
Local TimeTemperatureDewpointHumidityBarometerVisibilityWind DirectionWind SpeedGust SpeedPrecipitationEventsConditions
1:54 AM36.0 °F32.0 °F86 %29.73 in10.0 miNNW (330°)6.9 mphMostly Cloudy
2:54 AM36.0 °F28.9 °F76 %29.71 in10.0 miNNW (340°)8.1 mphMostly Cloudy
3:54 AM36.0 °F27.0 °F70 %29.70 in10.0 miNNW (340°)6.9 mphOvercast
4:54 AM36.0 °F27.0 °F70 %29.70 in10.0 miNW (320°)6.9 mphOvercast
5:54 AM35.1 °F26.1 °F70 %29.73 in10.0 miNNW (340°)16.1 mphOvercast
6:54 AM34.0 °F24.1 °F67 %29.74 in10.0 miNNW (330°)10.4 mphOvercast
7:54 AM35.1 °F21.9 °F59 %29.75 in10.0 miNNW (340°)11.5 mphOvercast
8:54 AM36.0 °F21.9 °F57 %29.78 in10.0 miNNW (340°)9.2 mphOvercast
9:54 AM36.0 °F24.1 °F62 %29.80 in10.0 miNorth (350°)9.2 mphOvercast
10:54 AM37.0 °F24.1 °F59 %29.79 in10.0 miNNW (340°)10.4 mphOvercast
11:54 AM39.9 °F23.0 °F51 %29.80 in10.0 miNNW (330°)11.5 mph20.7 mphOvercast
12:54 PM36.0 °F26.1 °F67 %29.82 in10.0 miNorth (360°)15.0 mph21.9 mphOvercast
1:23 PM35.6 °F26.6 °F70 %29.80 in10.0 miNorth (360°)9.2 mph19.6 mphOvercast
1:40 PM37.4 °F24.8 °F60 %29.80 in10.0 miVariable6.9 mph20.7 mphOvercast
1:54 PM37.9 °F24.1 °F57 %29.81 in10.0 miNNW (340°)13.8 mph19.6 mphOvercast
2:54 PM43.0 °F21.9 °F43 %29.80 in10.0 miVariable6.9 mph19.6 mphScattered Clouds
3:54 PM41.0 °F21.9 °F47 %29.81 in10.0 miNorth (350°)12.7 mphPartly Cloudy
4:54 PM37.0 °F21.0 °F52 %29.84 in10.0 miNorth (360°)16.1 mph24.2 mphPartly Cloudy
5:54 PM35.1 °F21.0 °F57 %29.88 in10.0 miNorth (350°)16.1 mph21.9 mphOvercast
6:54 PM34.0 °F21.0 °F59 %29.91 in10.0 miNNW (340°)12.7 mph20.7 mphOvercast
7:54 PM34.0 °F21.0 °F59 %29.90 in10.0 miNNW (330°)11.5 mphOvercast
8:54 PM33.8 °F21.2 °F60 %29.87 in10.0 miNNW (330°)8.1 mphOvercast
9:54 PM33.1 °F21.9 °F64 %29.89 in10.0 miNNW (340°)13.8 mphOvercast
10:51 PM33.8 °F23.0 °F65 %29.87 in10.0 miNorth (350°)11.5 mph19.6 mphOvercast
10:54 PM33.1 °F23.0 °F66 %29.89 in10.0 miNorth (350°)11.5 mph19.6 mphOvercast
11:54 PM33.1 °F23.0 °F66 %29.89 in10.0 miNorth (350°)11.5 mph20.7 mphOvercast
Hourly data recorded from KAVL, located miles away from Asheville, North Carolina







STORIES FROM OUR PARTNERS